7 * 24
多渠道服务支持
NAVSTAR 58(USA 190)是美国于2006年9月25日发射的GPS全球定位系统卫星,隶属于NAVSTAR系列。该卫星运行在高度约20200公里的中地球轨道,轨道周期12小时,轨道倾角约55度,属于GPS组网卫星,为全球用户提供高精度的定位、导航与授时服务,是美国全球定位系统空间段组网的重要组成部分,保障GPS系统服务的连续性与覆盖稳定性。
美国
(US)
| 数据来源 | 国际轨道数据 |
| 星历时间: | 2026-09-10T20:13:44+0800 18小时前 查看轨道信息 |
| 半长轴: | 26560.199km |
| 偏心率: | 0.0108634 |
| 轨道倾角: | 54.715° |
| 近地点辐角 | 56.970° |
| 升交点赤经 | 147.950° |
| 平近点角 | 131.615° |
| 近地点: | 19893.527km |
| 远地点: | 20470.597km |
| 周期: | 717.971分钟 |
| 每日圈数: | 2.005653 |